If you wish to contribute or participate in the discussions about articles you are invited to join SKYbrary as a registered user

 Actions

Luang Namtha Airport

From SKYbrary Wiki

VLLN
Airport
ICAO: VLLN – IATA: LXG
Summary
Name Luang Namtha Airport
Region Asia and Pacific
Territory Laos LA.gif
Location Louang Namtha, Loungnamtha
Serving Luang Namtha
Elevation 599.846 m
1,968 ft
1,968 ft599.846 m
Type small airport
Coordinates 20° 57' 38.02" N, 101° 24' 9.00" E
Runways
Designator Length Width Surface ROPS


METAR
Observation VLLN 190600Z 02002KT 9000 SCT020 32/22 Q1014 NOSIG
Station Luang Namtha Airport
Date/Time 19 September 2019 06:00:00
Wind direction 20°
Wind speed 02 kts
Lowest cloud amount scattered clouds
Temperature 32°C
Dew point 22°C
Humidity 55%
QNH 1014 hPa
Weather condition n/a

Louangnamtha Airport is an airport in Laos, 6 km south of the city of Luang Namtha.

Climatology

Tropical savannah climate (Köppen climate classification Aw)

Maps

Terrain

Loading map...

Airport Layout

Loading map...


Accidents & Serious Incidents at or in vicinity of VLLN

None on SKYbrary